�������l�o���
Date,Time,MP-1(��Sv/h),MP-2(��Sv/h),MP-3(��Sv/h),MP-4(��Sv/h),MP-5(��Sv/h),MP-6(��Sv/h),MP-7(��Sv/h),MP-8(��Sv/h),����,����(m/s),���J
2013/02/20,00:00,3.1,5.6,6.5,6.0,6.2,2.8,6.4,4.1,�k�k��,1.1,��
2013/02/20,00:10,3.1,5.5,6.5,6.0,6.2,2.8,6.4,4.1,�k��,2.4,��
2013/02/20,00:20,3.1,5.6,6.5,6.0,6.2,2.8,6.5,4.1,�k�k��,2.3,��
2013/02/20,00:30,3.1,5.6,6.5,6.0,6.2,2.8,6.5,4.1,�k��,3.2,��
2013/02/20,00:40,3.1,5.5,6.5,6.0,6.2,2.8,6.5,4.1,�k��,3.9,��
2013/02/20,00:50,3.1,5.5,6.5,6.0,6.2,2.8,6.4,4.1,�k��,3.4,��
2013/02/20,01:00,3.1,5.5,6.5,6.0,6.2,2.8,6.4,4.1,�k��,4.6,��
2013/02/20,01:10,3.1,5.6,6.5,6.0,6.2,2.8,6.4,4.1,�k��,5.0,��
2013/02/20,01:20,3.1,5.6,6.5,6.0,6.2,2.8,6.4,4.1,�k�k��,3.9,��
2013/02/20,01:30,3.1,5.6,6.5,6.0,6.2,2.8,6.4,4.1,�k�k��,5.0,��
2013/02/20,01:40,3.1,5.5,6.5,6.0,6.2,2.8,6.4,4.1,�k�k��,4.3,��
2013/02/20,01:50,3.1,5.5,6.5,6.0,6.2,2.8,6.4,4.1,�k�k��,5.2,��
2013/02/20,02:00,3.1,5.5,6.5,6.0,6.2,2.8,6.4,4.1,�k�k��,5.0,��
2013/02/20,02:10,3.1,5.5,6.5,6.0,6.2,2.8,6.4,4.1,�k�k��,4.5,��
2013/02/20,02:20,3.1,5.6,6.5,6.0,6.2,2.8,6.4,4.1,�k�k��,4.3,��
2013/02/20,02:30,3.1,5.5,6.5,6.0,6.2,2.8,6.4,4.1,�k�k��,4.7,��
2013/02/20,02:40,3.1,5.5,6.5,6.0,6.2,2.8,6.5,4.1,�k�k��,4.5,��
2013/02/20,02:50,3.1,5.5,6.5,6.0,6.2,2.8,6.4,4.1,�k�k��,5.0,��
2013/02/20,03:00,3.1,5.5,6.5,6.0,6.2,2.8,6.4,4.1,�k�k��,5.4,��
2013/02/20,03:10,3.1,5.5,6.5,6.0,6.2,2.8,6.4,4.1,�k��,5.0,��
2013/02/20,03:20,3.1,5.5,6.5,6.0,6.2,2.8,6.4,4.1,�k��,4.9,��
2013/02/20,03:30,3.1,5.5,6.5,6.0,6.2,2.8,6.4,4.1,�k��,5.3,��
2013/02/20,03:40,3.1,5.5,6.5,6.0,6.2,2.8,6.4,4.1,�k��,5.0,��
2013/02/20,03:50,3.1,5.5,6.5,6.0,6.2,2.8,6.4,4.1,�k��,4.4,��
2013/02/20,04:00,3.1,5.5,6.5,6.0,6.2,2.7,6.4,4.1,�k��,4.4,��
2013/02/20,04:10,3.1,5.5,6.5,6.0,6.2,2.8,6.4,4.1,�k��,3.8,��
2013/02/20,04:20,3.1,5.5,6.5,6.0,6.2,2.8,6.4,4.1,�k��,3.8,��
2013/02/20,04:30,3.1,5.5,6.5,6.0,6.2,2.7,6.4,4.1,�k��,3.5,��
2013/02/20,04:40,3.1,5.5,6.5,6.0,6.2,2.8,6.4,4.1,�k��,2.9,��
2013/02/20,04:50,3.1,5.5,6.5,6.0,6.2,2.8,6.4,4.1,���k��,3.2,��
2013/02/20,05:00,3.1,5.5,6.5,6.0,6.2,2.8,6.4,4.1,���k��,2.5,��
2013/02/20,05:10,3.1,5.5,6.5,6.0,6.2,2.8,6.4,4.1,���k��,1.7,��
2013/02/20,05:20,3.1,5.5,6.5,6.0,6.2,2.8,6.4,4.1,��,1.6,��
2013/02/20,05:30,3.1,5.5,6.5,6.0,6.2,2.8,6.4,4.1,���쐼,1.7,��
2013/02/20,05:40,3.1,5.5,6.5,6.0,6.2,2.7,6.4,4.1,���쐼,2.5,��
2013/02/20,05:50,3.1,5.5,6.5,6.0,6.2,2.8,6.4,4.1,���쐼,2.5,��
2013/02/20,06:00,3.1,5.5,6.5,6.0,6.2,2.8,6.4,4.1,��,2.6,��
2013/02/20,06:10,3.1,5.5,6.5,6.0,6.2,2.8,6.4,4.1,���쐼,2.6,��
2013/02/20,06:20,3.1,5.5,6.5,6.0,6.1,2.8,6.4,4.1,���쐼,2.7,��
2013/02/20,06:30,3.1,5.5,6.5,6.0,6.1,2.8,6.4,4.1,���쐼,3.4,��
2013/02/20,06:40,3.1,5.5,6.5,6.0,6.1,2.8,6.4,4.1,�쐼,3.0,��
2013/02/20,06:50,3.1,5.5,6.5,6.0,6.1,2.8,6.4,4.1,�쐼,2.7,��
2013/02/20,07:00,3.1,5.5,6.5,6.0,6.1,2.8,6.4,4.1,���쐼,3.4,��
2013/02/20,07:10,3.1,5.5,6.5,6.0,6.1,2.8,6.4,4.1,���쐼,3.5,��
2013/02/20,07:20,3.1,5.5,6.5,6.0,6.1,2.8,6.4,4.1,���쐼,4.7,��
2013/02/20,07:30,3.1,5.5,6.5,6.0,6.1,2.8,6.4,4.1,���쐼,4.7,��
2013/02/20,07:40,3.1,5.5,6.5,6.0,6.1,2.8,6.4,4.1,��,5.2,��
2013/02/20,07:50,3.1,5.5,6.5,6.0,6.1,2.8,6.4,4.1,���쐼,4.7,��
2013/02/20,08:00,3.1,5.5,6.5,6.0,6.1,2.8,6.4,4.1,��,3.8,��
2013/02/20,08:10,3.1,5.5,6.5,6.0,6.2,2.8,6.4,4.1,��,3.6,��
2013/02/20,08:20,3.1,5.6,6.5,6.0,6.2,2.8,6.4,4.1,��,2.9,��
2013/02/20,08:30,3.1,5.5,6.5,6.0,6.2,2.8,6.4,4.1,��,2.6,��
2013/02/20,08:40,3.1,5.5,6.5,6.0,6.2,2.8,6.4,4.1,��,3.0,��
2013/02/20,08:50,3.1,5.5,6.5,6.0,6.2,2.8,6.4,4.1,���k��,3.2,��
2013/02/20,09:00,3.1,5.5,6.5,6.0,6.2,2.8,6.4,4.1,��,3.3,��
2013/02/20,09:10,3.1,5.6,6.5,6.0,6.2,2.8,6.5,4.1,���k��,3.2,��
2013/02/20,09:20,3.1,5.6,6.5,6.0,6.2,2.8,6.4,4.1,���쐼,1.8,��
2013/02/20,09:30,3.1,5.6,6.5,6.0,6.2,2.8,6.4,4.1,��쓌,0.8,��
2013/02/20,09:40,3.1,5.6,6.5,6.0,6.2,2.8,6.4,4.1,��,1.7,��
2013/02/20,09:50,3.1,5.6,6.5,6.0,6.2,2.8,6.5,4.1,��쓌,2.9,��
2013/02/20,10:00,3.1,5.5,6.5,6.0,6.2,2.8,6.5,4.1,��쓌,3.4,��
2013/02/20,10:10,3.1,5.5,6.5,6.0,6.2,2.8,6.5,4.1,��쓌,3.2,��
2013/02/20,10:20,3.1,5.5,6.5,6.0,6.2,2.8,6.5,4.1,�쓌,4.0,��
2013/02/20,10:30,3.1,5.5,6.5,6.0,6.2,2.8,6.4,4.1,��쓌,3.0,��
2013/02/20,10:40,3.1,5.5,6.5,6.0,6.2,2.8,6.5,4.1,�쓌,4.6,��
2013/02/20,10:50,3.1,5.5,6.5,6.0,6.2,2.8,6.4,4.1,�쓌,4.6,��
2013/02/20,11:00,3.1,5.5,6.5,6.0,6.2,2.8,6.5,4.1,�쓌,4.7,��
2013/02/20,11:10,3.1,5.5,6.5,6.0,6.2,2.8,6.5,4.1,�쓌,5.0,��
2013/02/20,11:20,3.1,5.6,6.5,6.0,6.2,2.8,6.5,4.1,�쓌,5.5,��
2013/02/20,11:30,3.1,5.6,6.5,6.0,6.2,2.8,6.5,4.1,���쓌,4.9,��
2013/02/20,11:40,3.1,5.6,6.6,6.0,6.2,2.8,6.5,4.1,���k��,3.9,��
2013/02/20,11:50,3.1,5.5,6.6,6.0,6.2,2.8,6.5,4.1,���k��,3.0,��
2013/02/20,12:00,3.1,5.6,6.6,6.1,6.2,2.8,6.5,4.1,�k��,4.0,��
2013/02/20,12:10,3.1,5.6,6.6,6.1,6.2,2.8,6.5,4.1,��,9.3,��
2013/02/20,12:20,3.1,5.6,6.6,6.1,6.2,2.8,6.5,4.1,��,10.2,��
2013/02/20,12:30,3.1,5.6,6.6,6.1,6.2,2.8,6.5,4.1,��,9.6,��
2013/02/20,12:40,3.1,5.6,6.6,6.1,6.2,2.8,6.5,4.1,��,9.3,��
2013/02/20,12:50,3.1,5.6,6.6,6.1,6.2,2.8,6.5,4.1,��,11.3,��
2013/02/20,13:00,3.1,5.6,6.6,6.1,6.2,2.8,6.5,4.1,��,11.6,��
2013/02/20,13:10,3.1,5.6,6.6,6.1,6.2,2.8,6.5,4.1,��,11.6,��
2013/02/20,13:20,3.1,5.6,6.6,6.1,-,2.8,6.5,4.1,��,12.3,��
2013/02/20,13:30,3.1,5.6,6.6,6.1,-,2.8,6.5,4.1,��,10.7,��
2013/02/20,13:40,3.1,5.6,6.6,6.1,-,2.8,6.5,4.1,��,11.5,��
2013/02/20,13:50,3.1,5.6,6.6,6.1,-,2.8,6.5,4.1,��,12.4,��
2013/02/20,14:00,3.1,5.6,6.6,6.1,-,2.8,6.5,4.1,��,14.0,��
2013/02/20,14:10,3.1,5.6,6.6,6.1,-,2.8,6.5,4.1,��,12.9,�L
2013/02/20,14:20,3.1,5.6,6.6,6.1,-,2.8,6.5,4.1,��,12.6,��
2013/02/20,14:30,3.1,5.6,6.6,6.1,-,2.8,6.5,4.1,��,11.6,��
2013/02/20,14:40,3.1,5.6,6.6,6.1,-,2.8,6.5,4.1,��,11.8,��
2013/02/20,14:50,3.1,5.6,6.6,6.1,-,2.8,6.5,4.1,��,9.3,��
2013/02/20,15:00,3.1,5.6,6.6,6.1,-,2.8,6.5,4.1,��,11.2,��
2013/02/20,15:10,3.1,5.6,6.6,6.1,-,2.8,6.5,4.1,���쐼,9.9,��
2013/02/20,15:20,3.1,5.6,6.6,6.1,-,2.8,6.5,4.1,���쐼,10.5,��
2013/02/20,15:30,3.1,5.6,6.6,6.1,-,2.8,6.5,4.1,���쐼,10.4,��
2013/02/20,15:40,3.1,5.6,6.6,6.1,-,2.8,6.5,4.1,��,10.4,��
2013/02/20,15:50,3.1,5.6,6.6,6.1,6.2,2.8,6.5,4.1,��,9.9,��
2013/02/20,16:00,3.1,5.6,6.6,6.1,6.2,-,6.5,4.1,��,8.6,��
2013/02/20,16:10,3.1,5.6,6.6,6.1,6.2,-,6.5,4.1,��,7.4,��
2013/02/20,16:20,3.1,5.6,6.6,6.1,6.2,-,6.5,4.1,���k��,9.1,�L
2013/02/20,16:30,3.1,5.6,6.6,6.1,6.2,-,6.5,4.1,�k��,7.4,�L
2013/02/20,16:40,3.1,5.6,6.6,6.1,6.2,-,6.5,4.1,���k��,10.7,�L
2013/02/20,16:50,3.1,5.6,6.6,6.1,6.2,-,6.5,4.1,���k��,12.1,�L
2013/02/20,17:00,3.1,5.6,6.6,6.1,6.2,-,6.5,4.1,���k��,11.3,��
2013/02/20,17:10,3.1,5.6,6.6,6.1,6.2,-,6.5,4.1,���k��,9.3,��
2013/02/20,17:20,3.1,5.6,6.6,6.1,6.2,-,6.5,4.1,���k��,9.9,�L
2013/02/20,17:30,3.1,5.6,6.6,6.1,6.2,-,6.5,4.1,���k��,7.7,�L
2013/02/20,17:40,3.1,5.6,6.6,6.1,6.2,-,6.5,4.1,���k��,7.7,��
2013/02/20,17:50,3.1,5.6,6.6,6.1,6.2,-,6.5,4.1,�k��,10.1,��
2013/02/20,18:00,3.1,5.6,6.6,6.1,6.2,2.7,6.5,4.1,���k��,9.6,��
2013/02/20,18:10,3.1,5.6,6.6,6.1,6.2,2.8,6.5,4.1,���k��,9.9,��
2013/02/20,18:20,3.1,5.6,6.6,6.1,6.2,2.8,6.5,4.1,���k��,11.3,��
2013/02/20,18:30,3.1,5.6,6.6,6.1,6.2,2.8,6.5,4.1,���k��,10.2,��
2013/02/20,18:40,3.1,5.6,6.6,6.1,6.2,2.8,6.5,4.1,�k��,11.8,��
2013/02/20,18:50,3.1,5.6,6.6,6.0,6.2,2.8,6.5,4.1,�k��,11.2,��
2013/02/20,19:00,3.1,5.6,6.6,6.0,6.2,2.8,6.5,4.1,���k��,11.2,��
2013/02/20,19:10,3.1,5.6,6.6,6.1,6.2,2.8,6.5,4.1,�k��,10.1,��
2013/02/20,19:20,3.1,5.6,6.6,6.1,6.2,2.8,6.5,4.1,�k��,10.4,��
2013/02/20,19:30,3.1,5.6,6.6,6.1,6.2,2.8,6.5,4.1,�k��,9.9,��
2013/02/20,19:40,3.1,5.6,6.6,6.0,6.2,2.8,6.5,4.1,�k��,8.5,��
2013/02/20,19:50,3.1,5.6,6.5,6.1,6.2,2.8,6.5,4.1,�k��,7.9,��
2013/02/20,20:00,3.1,5.6,6.6,6.1,6.2,2.8,6.5,4.1,�k��,7.8,��
2013/02/20,20:10,3.1,5.6,6.6,6.1,6.2,2.8,6.5,4.1,�k��,6.8,��
2013/02/20,20:20,3.1,5.6,6.6,6.1,6.2,2.8,6.5,4.1,�k��,8.6,��
2013/02/20,20:30,3.1,5.6,6.5,6.1,6.2,2.8,6.5,4.1,�k��,6.3,��
2013/02/20,20:40,3.1,5.6,6.5,6.1,6.2,2.8,6.5,4.1,���k��,7.5,��
2013/02/20,20:50,3.1,5.6,6.6,6.0,6.2,2.8,6.5,4.1,���k��,7.7,��
2013/02/20,21:00,3.1,5.6,6.6,6.0,6.2,2.8,6.5,4.1,��,9.9,��
2013/02/20,21:10,3.1,5.6,6.5,6.0,6.2,2.8,6.5,4.1,��,9.7,��
2013/02/20,21:20,3.1,5.6,6.5,6.0,6.2,2.8,6.5,4.1,��,9.9,��
2013/02/20,21:30,3.1,5.6,6.5,6.0,6.2,2.8,6.5,4.1,��,7.2,��
2013/02/20,21:40,3.1,5.6,6.5,6.1,6.2,2.8,6.5,4.1,���k��,10.4,��
2013/02/20,21:50,3.1,5.6,6.5,6.1,6.2,2.8,6.5,4.1,���k��,7.4,��
2013/02/20,22:00,3.1,5.6,6.5,6.0,6.2,2.8,6.5,4.1,���k��,7.4,��
2013/02/20,22:10,3.1,5.6,6.5,6.1,6.2,2.8,6.5,4.1,���k��,8.0,��
2013/02/20,22:20,3.1,5.6,6.5,6.0,6.2,2.8,6.5,4.1,���k��,7.9,��
2013/02/20,22:30,3.1,5.6,6.5,6.0,6.2,2.8,6.5,4.1,���k��,8.9,��
2013/02/20,22:40,3.1,5.6,6.5,6.0,6.2,2.8,6.5,4.1,���k��,9.9,��
2013/02/20,22:50,3.1,5.6,6.5,6.0,6.2,2.8,6.5,4.1,���k��,10.7,��
2013/02/20,23:00,3.1,5.6,6.5,6.0,6.2,2.8,6.5,4.1,���k��,9.6,��
2013/02/20,23:10,3.1,5.6,6.5,6.0,6.2,2.8,6.5,4.1,��,11.6,��
2013/02/20,23:20,3.1,5.6,6.5,6.0,6.2,2.8,6.5,4.1,��,9.3,��
2013/02/20,23:30,3.1,5.6,6.5,6.0,6.2,2.8,6.5,4.1,��,9.4,��
2013/02/20,23:40,3.1,5.6,6.5,6.0,6.2,2.8,6.5,4.1,��,9.0,��
2013/02/20,23:50,3.1,5.6,6.5,6.0,6.2,2.8,6.5,4.1,��,8.6,��
